Flag for U.S.A. Weather past 2 weeks in Atlantic City, New Jersey, U.S.A.

Now
33 °F

Clear.


Feels Like: 25 °F
Forecast: 33 / 42 °F
Wind: 9 mph from West

Location: Atlantic City International Airport

Current Time: Jan 25, 2015 at 5:16:46 AM

Latest Report: Jan 25, 2015 at 4:54 AM


Visibility: 9 mi

Pressure: 29.70 "Hg

Humidity: 78%

Dew point: 27 °F

Location of Atlantic CityLocation

Historic Weather in Atlantic City — Graph

°F

Atlantic City temperature yesterday

Maximum temperature yesterday: 37 °F (at 12:54 PM)
Minimum temperature yesterday: 34 °F (at 12:54 AM)
Average temperature yesterday: 35 °F

Past Weeks' High & Low Weather Summary

 TemperatureHumidityPressure
High50 °F (Jan 18, 12:54 PM)97% (Jan 12, 1:54 PM)30.71 "Hg (Jan 12, 1:54 PM)
Low6 °F (Jan 11, 5:54 AM)24% (Jan 17, 12:54 PM)29.29 "Hg (Jan 24, 1:54 PM)
Average32 °F73%30.16 "Hg
* Reported Jan 10 3:54 AM — Jan 25 3:54 AM, Atlantic City, Weather by CustomWeather, © 2014

Note: Actual official high and low records may vary slightly from our data, if they occured in-between our weather recording intervals... More about our weather records

Advertising

Atlantic City weather history for previous 24 hours

 ConditionsComfort  
Time TempWeatherWind HumidityBarometerVisibility
3:54 AM
Jan 25
33 °FClear.9 mph78%29.67 "Hg7 mi
2:54 AM34 °FOvercast.9 mph76%29.66 "Hg8 mi
1:54 AM33 °FOvercast.8 mph78%29.64 "Hg8 mi
12:54 AM33 °FClear.8 mph75%29.60 "Hg9 mi
11:54 PM
Jan 24
34 °FClear.12 mph73%29.58 "Hg10 mi
10:54 PM34 °FClear.10 mph76%29.56 "Hg9 mi
9:54 PM34 °FClear.12 mph82%29.53 "Hg9 mi
8:54 PM34 °FClear.13 mph88%29.49 "Hg7 mi
7:54 PM35 °FFog.10 mph85%29.48 "Hg5 mi
6:54 PM36 °FFog.9 mph89%29.46 "Hg5 mi
5:54 PM37 °FPartly cloudy.14 mph89%29.42 "Hg7 mi
4:54 PM37 °FLight rain. Fog.13 mph89%29.38 "Hg5 mi
3:54 PM37 °FFog.16 mph89%29.36 "Hg5 mi
2:54 PM36 °FLow clouds.17 mph92%29.31 "Hg8 mi
1:54 PM37 °FLow clouds.12 mph93%29.29 "Hg10 mi
12:54 PM37 °FLow clouds.14 mph93%29.31 "Hg10 mi
11:54 AM36 °FFog.14 mph97%29.37 "Hg1 mi
10:54 AM36 °FFog.15 mph92%29.40 "Hg2 mi
9:54 AM36 °FLight snow. Fog.15 mph92%29.44 "Hg1 mi
8:54 AM36 °FLight rain. Low clouds.13 mph97%29.44 "Hg10 mi
7:54 AM36 °FLow clouds.14 mph92%29.48 "Hg8 mi
6:54 AM36 °FLight rain. Fog.15 mph97%29.55 "Hg6 mi
5:54 AM35 °FHeavy rain. Fog.15 mph92%29.59 "Hg2 mi
Weather by CustomWeather, © 2014

See weather overviewHow to use our weather pages